Time,TemperatureF,DewpointF,PressureIn,WindDirection,WindDirectionDegrees,WindSpeedMPH,WindSpeedGustMPH,Humidity,HourlyPrecipIn,Conditions,Clouds,dailyrainin,SoftwareType,DateUTC
2013-08-25 00:00:00,84.0,80.0,30.09,ESE,120,15.0,16.0,88,-99.99,,,-99.99,,2013-08-25 04:00:00,
2013-08-25 00:24:00,84.0,80.0,30.09,ESE,120,15.0,16.0,88,-99.99,,,-99.99,,2013-08-25 04:24:00,
2013-08-25 00:33:00,84.0,80.0,30.09,ESE,120,15.0,16.0,88,-99.99,,,-99.99,,2013-08-25 04:33:00,
2013-08-25 00:43:00,84.0,80.0,30.09,ESE,120,15.0,16.0,88,-99.99,,,-99.99,,2013-08-25 04:43:00,
2013-08-25 00:54:00,84.0,80.0,30.09,ESE,120,15.0,16.0,88,-99.99,,,-99.99,,2013-08-25 04:54:00,
2013-08-25 01:00:00,84.0,80.0,30.09,East,90,14.0,15.0,87,-99.99,,,-99.99,,2013-08-25 05:00:00,
2013-08-25 01:22:00,84.0,80.0,30.09,East,90,14.0,15.0,87,-99.99,,,-99.99,,2013-08-25 05:22:00,
2013-08-25 01:34:00,84.0,80.0,30.09,East,90,14.0,15.0,87,-99.99,,,-99.99,,2013-08-25 05:34:00,
2013-08-25 01:42:00,84.0,80.0,30.09,East,90,14.0,15.0,87,-99.99,,,-99.99,,2013-08-25 05:42:00,
2013-08-25 01:52:00,84.0,80.0,30.09,East,90,14.0,15.0,87,-99.99,,,-99.99,,2013-08-25 05:52:00,
2013-08-25 02:00:00,84.0,80.0,30.07,East,90,14.0,15.0,88,-99.99,,,-99.99,,2013-08-25 06:00:00,
2013-08-25 02:21:00,84.0,80.0,30.07,East,90,14.0,15.0,88,-99.99,,,-99.99,,2013-08-25 06:21:00,
2013-08-25 02:32:00,84.0,80.0,30.07,East,90,14.0,15.0,88,-99.99,,,-99.99,,2013-08-25 06:32:00,
2013-08-25 02:43:00,84.0,80.0,30.07,East,90,14.0,15.0,88,-99.99,,,-99.99,,2013-08-25 06:43:00,
2013-08-25 02:52:00,84.0,80.0,30.07,East,90,14.0,15.0,88,-99.99,,,-99.99,,2013-08-25 06:52:00,
2013-08-25 03:00:00,83.0,80.0,30.05,ESE,110,11.0,13.0,88,-99.99,,,-99.99,,2013-08-25 07:00:00,
2013-08-25 03:22:00,83.0,80.0,30.05,ESE,110,11.0,13.0,88,-99.99,,,-99.99,,2013-08-25 07:22:00,
2013-08-25 03:32:00,83.0,80.0,30.05,ESE,110,11.0,13.0,88,-99.99,,,-99.99,,2013-08-25 07:32:00,
2013-08-25 03:42:00,83.0,80.0,30.05,ESE,110,11.0,13.0,88,-99.99,,,-99.99,,2013-08-25 07:42:00,
2013-08-25 03:52:00,83.0,80.0,30.05,ESE,110,11.0,13.0,88,-99.99,,,-99.99,,2013-08-25 07:52:00,
2013-08-25 04:00:00,83.0,81.0,30.03,ESE,120,13.0,14.0,91,-99.99,,,-99.99,,2013-08-25 08:00:00,
2013-08-25 04:21:00,83.0,81.0,30.03,ESE,120,13.0,14.0,91,-99.99,,,-99.99,,2013-08-25 08:21:00,
2013-08-25 04:32:00,83.0,81.0,30.03,ESE,120,13.0,14.0,91,-99.99,,,-99.99,,2013-08-25 08:32:00,
2013-08-25 04:42:00,83.0,81.0,30.03,ESE,120,13.0,14.0,91,-99.99,,,-99.99,,2013-08-25 08:42:00,
2013-08-25 04:52:00,83.0,81.0,30.03,ESE,120,13.0,14.0,91,-99.99,,,-99.99,,2013-08-25 08:52:00,
2013-08-25 05:00:00,83.0,80.0,30.04,ESE,110,10.0,13.0,89,-99.99,,,-99.99,,2013-08-25 09:00:00,
2013-08-25 05:44:00,83.0,80.0,30.04,ESE,110,10.0,13.0,89,-99.99,,,-99.99,,2013-08-25 09:44:00,
2013-08-25 05:55:00,83.0,80.0,30.04,ESE,110,10.0,13.0,89,-99.99,,,-99.99,,2013-08-25 09:55:00,
2013-08-25 06:00:00,83.0,80.0,30.06,ESE,120,7.0,8.0,90,-99.99,,,-99.99,,2013-08-25 10:00:00,
2013-08-25 06:42:00,83.0,80.0,30.06,ESE,120,7.0,8.0,90,-99.99,,,-99.99,,2013-08-25 10:42:00,
2013-08-25 06:53:00,83.0,80.0,30.06,ESE,120,7.0,8.0,90,-99.99,,,-99.99,,2013-08-25 10:53:00,
2013-08-25 07:00:00,83.0,80.0,30.08,ESE,120,8.0,9.0,91,-99.99,,,-99.99,,2013-08-25 11:00:00,
2013-08-25 07:42:00,83.0,80.0,30.08,ESE,120,8.0,9.0,91,-99.99,,,-99.99,,2013-08-25 11:42:00,
2013-08-25 07:52:00,83.0,80.0,30.08,ESE,120,8.0,9.0,91,-99.99,,,-99.99,,2013-08-25 11:52:00,
2013-08-25 08:00:00,84.0,80.0,30.10,East,90,5.0,6.0,89,-99.99,,,-99.99,,2013-08-25 12:00:00,
2013-08-25 08:42:00,84.0,80.0,30.10,East,90,5.0,6.0,89,-99.99,,,-99.99,,2013-08-25 12:42:00,
2013-08-25 08:52:00,84.0,80.0,30.10,East,90,5.0,6.0,89,-99.99,,,-99.99,,2013-08-25 12:52:00,
2013-08-25 09:00:00,84.0,80.0,30.10,East,100,6.0,7.0,87,-99.99,,,-99.99,,2013-08-25 13:00:00,
2013-08-25 09:42:00,84.0,80.0,30.10,East,100,6.0,7.0,87,-99.99,,,-99.99,,2013-08-25 13:42:00,
2013-08-25 09:52:00,84.0,80.0,30.10,East,100,6.0,7.0,87,-99.99,,,-99.99,,2013-08-25 13:52:00,
2013-08-25 10:00:00,85.0,80.0,30.12,East,80,6.0,7.0,85,-99.99,,,-99.99,,2013-08-25 14:00:00,
2013-08-25 10:42:00,85.0,80.0,30.12,East,80,6.0,7.0,85,-99.99,,,-99.99,,2013-08-25 14:42:00,
2013-08-25 10:52:00,85.0,80.0,30.12,East,80,6.0,7.0,85,-99.99,,,-99.99,,2013-08-25 14:52:00,
2013-08-25 11:00:00,85.0,81.0,30.14,East,90,7.0,8.0,85,-99.99,,,-99.99,,2013-08-25 15:00:00,
2013-08-25 11:44:00,85.0,81.0,30.14,East,90,7.0,8.0,85,-99.99,,,-99.99,,2013-08-25 15:44:00,
2013-08-25 11:54:00,85.0,81.0,30.14,East,90,7.0,8.0,85,-99.99,,,-99.99,,2013-08-25 15:54:00,
2013-08-25 12:00:00,85.0,81.0,30.13,East,90,8.0,8.0,87,-99.99,,,-99.99,,2013-08-25 16:00:00,
2013-08-25 12:44:00,85.0,81.0,30.13,East,90,8.0,8.0,87,-99.99,,,-99.99,,2013-08-25 16:44:00,
2013-08-25 12:53:00,85.0,81.0,30.13,East,90,8.0,8.0,87,-99.99,,,-99.99,,2013-08-25 16:53:00,
2013-08-25 13:00:00,85.0,81.0,30.11,East,100,10.0,11.0,89,-99.99,,,-99.99,,2013-08-25 17:00:00,
2013-08-25 13:42:00,85.0,81.0,30.11,East,100,10.0,11.0,89,-99.99,,,-99.99,,2013-08-25 17:42:00,
2013-08-25 13:53:00,85.0,81.0,30.11,East,100,10.0,11.0,89,-99.99,,,-99.99,,2013-08-25 17:53:00,
2013-08-25 14:00:00,85.0,80.0,30.11,East,80,15.0,16.0,85,-99.99,,,-99.99,,2013-08-25 18:00:00,
2013-08-25 14:42:00,85.0,80.0,30.11,East,80,15.0,16.0,85,-99.99,,,-99.99,,2013-08-25 18:42:00,
2013-08-25 14:52:00,85.0,80.0,30.11,East,80,15.0,16.0,85,-99.99,,,-99.99,,2013-08-25 18:52:00,
2013-08-25 15:00:00,84.0,79.0,30.09,ENE,70,14.0,15.0,85,-99.99,,,-99.99,,2013-08-25 19:00:00,
2013-08-25 15:42:00,84.0,79.0,30.09,ENE,70,14.0,15.0,85,-99.99,,,-99.99,,2013-08-25 19:42:00,
2013-08-25 15:53:00,84.0,79.0,30.09,ENE,70,14.0,15.0,85,-99.99,,,-99.99,,2013-08-25 19:53:00,
2013-08-25 16:00:00,85.0,80.0,30.06,East,90,11.0,13.0,85,-99.99,,,-99.99,,2013-08-25 20:00:00,
2013-08-25 16:43:00,85.0,80.0,30.06,East,90,11.0,13.0,85,-99.99,,,-99.99,,2013-08-25 20:43:00,
2013-08-25 16:52:00,85.0,80.0,30.06,East,90,11.0,13.0,85,-99.99,,,-99.99,,2013-08-25 20:52:00,
2013-08-25 17:00:00,85.0,81.0,30.06,East,90,14.0,15.0,88,-99.99,,,-99.99,,2013-08-25 21:00:00,
2013-08-25 17:43:00,85.0,81.0,30.06,East,90,14.0,15.0,88,-99.99,,,-99.99,,2013-08-25 21:43:00,
2013-08-25 17:54:00,85.0,81.0,30.06,East,90,14.0,15.0,88,-99.99,,,-99.99,,2013-08-25 21:54:00,
2013-08-25 18:00:00,85.0,80.0,30.06,East,90,13.0,14.0,83,-99.99,,,-99.99,,2013-08-25 22:00:00,
2013-08-25 18:43:00,85.0,80.0,30.06,East,90,13.0,14.0,83,-99.99,,,-99.99,,2013-08-25 22:43:00,
2013-08-25 18:53:00,85.0,80.0,30.06,East,90,13.0,14.0,83,-99.99,,,-99.99,,2013-08-25 22:53:00,
2013-08-25 19:00:00,85.0,78.0,30.06,East,90,9.0,10.0,81,-99.99,,,-99.99,,2013-08-25 23:00:00,
2013-08-25 19:42:00,85.0,78.0,30.06,East,90,9.0,10.0,81,-99.99,,,-99.99,,2013-08-25 23:42:00,
2013-08-25 19:53:00,85.0,78.0,30.06,East,90,9.0,10.0,81,-99.99,,,-99.99,,2013-08-25 23:53:00,
2013-08-25 20:00:00,84.0,80.0,30.08,East,80,10.0,11.0,88,-99.99,,,-99.99,,2013-08-26 00:00:00,
2013-08-25 20:41:00,84.0,80.0,30.08,East,80,10.0,11.0,88,-99.99,,,-99.99,,2013-08-26 00:41:00,
2013-08-25 20:52:00,84.0,80.0,30.08,East,80,10.0,11.0,88,-99.99,,,-99.99,,2013-08-26 00:52:00,
2013-08-25 21:42:00,83.0,80.0,30.09,East,80,11.0,13.0,89,-99.99,,,-99.99,,2013-08-26 01:42:00,
2013-08-25 22:42:00,83.0,81.0,30.10,East,90,13.0,14.0,92,-99.99,,,-99.99,,2013-08-26 02:42:00,
2013-08-25 23:00:00,83.0,81.0,30.10,East,80,14.0,14.0,91,-99.99,,,-99.99,,2013-08-26 03:00:00,
2013-08-25 23:44:00,83.0,81.0,30.10,East,80,14.0,14.0,91,-99.99,,,-99.99,,2013-08-26 03:44:00,
2013-08-25 23:55:00,83.0,81.0,30.10,East,80,14.0,14.0,91,-99.99,,,-99.99,,2013-08-26 03:55:00,